Terminal Aerodrome Forecast
Issued by NWS

Home | Current Version | Previous Version | Text Only | Print | Product List | Glossary On
Versions: 1 2 3 4 5 6 7 8 9 10 11 12 13 14 15 16 17 18 19 20 21 22 23 24 25 26 27 28 29 30 31 32 33 34 35 36 37 38 39 40 41 42 43 44 45 46 47 48 49
000
FTUS44 KHGX 042053 AAA
TAFIAH
TAF AMD
KIAH 042053Z 0421/0524 13012KT P6SM FEW060
     FM050200 12008KT P6SM SCT200
     FM051000 13005KT P6SM VCSH SCT015
     FM051600 13013KT P6SM VCTS SCT025 BKN035CB PROB30 0517/0521
      -TSRA OVC030CB=

USA.gov is the U.S. government's official web portal to all federal, state and local government web resources and services.